Flag for Argentina

Past Weather in Santiago del Estero, Santiago del Estero, Argentina — Yesterday and Last 2 Weeks

Now
62 °F

Overcast.


Feels Like: 62 °F
Forecast: 67 / 49 °F
Wind: 3 mph from Southwest

Location: Santiago Del Estero Aero.

Current Time: Jul 11, 2020 at 2:52:42 pm

Latest Report: Jul 11, 2020 at 2:00 pm


Visibility: 7 mi

Pressure: 29.90 "Hg

Humidity: 53%

Dew Point: 45 °F

Location of Santiago del EsteroLocation

Past Weather in Santiago del Estero — Graph

°F

Santiago del Estero Temperature Yesterday

Maximum temperature yesterday: 72 °F (at 5:00 pm)
Minimum temperature yesterday: 46 °F (at 8:00 am)
Average temperature yesterday: 57 °F

High & Low Weather Summary for the Past Weeks

 TemperatureHumidityPressure
High76 °F (Jul 4, 4:00 pm)97% (Jul 2, 8:00 am)30.25 "Hg (Jul 2, 8:00 am)
Low26 °F (Jul 9, 8:00 am)23% (Jun 30, 12:00 pm)29.57 "Hg (Jul 4, 3:00 pm)
Average51 °F60%30.02 "Hg
* Reported Jun 26 1:00 pm — Jul 11 1:00 pm, Santiago del Estero. Weather by CustomWeather, © 2020

Note: Actual official high and low records may vary slightly from our data, if they occured in-between our weather recording intervals... More about our weather records

Santiago del Estero Weather History for the Previous 24 Hours

Scroll right to see more
 ConditionsComfort  
Time TempWeatherWind HumidityBarometerVisibility
1:00 pm
Sat, Jul 11
59 °FOvercast.2 mph53%29.95 "Hg7 mi
12:00 pm55 °FOvercast.5 mph62%29.98 "Hg7 mi
11:00 am54 °FOvercast.6 mph61%30.01 "Hg7 mi
10:00 am51 °FOvercast.5 mph62%30.02 "Hg7 mi
9:00 am44 °FOvercast.6 mph77%30.02 "Hg7 mi
8:00 am42 °FPassing clouds.3 mph80%29.99 "Hg7 mi
7:00 am43 °FPassing clouds.5 mph82%29.98 "Hg6 mi
6:00 am44 °FPassing clouds.5 mph77%29.98 "Hg6 mi
5:00 am48 °FPassing clouds.7 mph69%29.98 "Hg6 mi
4:00 am52 °FPassing clouds.7 mph66%29.99 "Hg6 mi
3:00 am53 °FPassing clouds.9 mph62%30.00 "Hg6 mi
2:00 am54 °FPassing clouds.10 mph58%30.01 "Hg6 mi
1:00 am54 °FClear.12 mph55%30.00 "Hg6 mi
12:00 am55 °FClear.13 mph53%29.97 "Hg6 mi
11:00 pm
Fri, Jul 10
54 °FPassing clouds.10 mph57%29.96 "Hg6 mi
10:00 pm55 °FPassing clouds.10 mph56%29.90 "Hg6 mi
9:00 pm55 °FPassing clouds.8 mph56%29.86 "Hg6 mi
8:00 pm59 °FPassing clouds.7 mph49%29.80 "Hg6 mi
7:00 pm66 °FPassing clouds.9 mph41%29.75 "Hg6 mi
6:00 pm69 °FPartly sunny.7 mph39%29.72 "Hg6 mi
5:00 pm72 °FScattered clouds.3 mph38%29.69 "Hg6 mi
4:00 pm70 °FSunny.3 mph38%29.67 "Hg6 mi
3:00 pm69 °FSunny.5 mph36%29.67 "Hg6 mi
2:00 pm67 °FSunny.3 mph40%29.68 "Hg6 mi
Weather by CustomWeather, © 2020

See weather overview